[[{"header":{"parameterUnit":"m.s-1","parameterCategory":1,"la1":30.2991,"la2":30.254,"lo1":-89.0895,"lo2":-89.0444,"dy":0.0017,"dx":0.0017,"nx":28,"ny":28,"refTime":"2023-07-19T21:00:00:Z","depth":0,"parameterNumber":2,"parameterNumberName":"U-component_of_WINDS"},"data":[0,0,0,0,0,0,0,0,0,0,0,0,0,0,0,0,0,0,0,0,0,0,0,0,0,0,0,0,0,0,0,0,0,0,0,0,0,0,0,0,0,0,0,0,0,0,0,0,0,0,0,0,0,0,0,0,0,0,4.0002,4.0003,0,4.0134,4.0135,4.0137,4.0086,4.0083,4.008,4.0077,4.0213,4.022,4.0226,0,0,0,0,0,0,0,0,0,0,0,0,0,3.9706,3.9712,4.0002,4.0003,4.0005,4.0133,4.0135,4.0137,4.0087,4.0083,4.0079,4.0076,4.0211,4.0219,4.0227,0,0,0,0,0,0,0,0,0,0,0,0,0,3.9836,3.9714,4.0001,3.9995,3.9996,4.0133,4.0135,4.0138,4.0087,4.0083,4.0078,4.0074,4.0209,4.0218,4.0228,4.0379,0,0,4.0257,4.0261,0,0,0,0,0,0,0,0,3.9829,3.9847,3.9994,3.9996,3.9997,4.0089,4.0081,4.0218,4.0089,4.0053,4.0077,4.0072,4.0176,4.0188,4.0223,4.0385,4.0391,4.0258,4.0264,4.0268,4.0271,0,0,0,0,0,0,0,3.982,3.9841,4.0054,3.9997,3.9998,3.9986,3.9999,4.0107,4.0138,4.0056,4.0052,4.0068,4.0175,4.0213,4.0225,4.0393,4.0258,4.0266,4.0272,4.0276,4.0685,4.069,0,0,0,0,0,0,3.981,3.9834,4.005,4.0058,3.99,3.9995,4.001,4.0064,4.0137,4.0144,4.0072,4.0066,4.0199,4.0214,4.023,4.0411,4.0268,4.0277,4.0283,4.068,4.0686,4.0692,0,0,0,0,0,0,3.9804,3.983,4.0044,3.9945,3.9971,4.0005,4.0066,4.0069,4.0107,4.0149,4.0155,4.0105,4.0196,4.0216,4.0342,4.0415,4.0282,4.029,4.0674,4.0682,4.0689,4.0774,0,0,0,0,0,0,3.9796,3.9828,3.9886,3.9947,3.9977,4.0154,4.007,4.0075,4.0123,4.0116,4.0182,4.0188,4.0194,4.0328,4.0352,4.0426,4.0298,4.0668,4.0678,4.0687,4.0765,4.0783,4.08,0,0,0,0,0,3.9786,3.9905,3.9889,3.9915,4.005,4.0158,4.0176,4.0179,4.013,4.0188,4.0215,4.0186,4.0403,4.0341,4.0367,4.0446,4.0663,4.0675,4.0686,4.0757,4.078,4.0799,0,0,0,0,0,0,3.9853,3.9913,3.9896,4.0039,4.0094,4.015,4.0223,4.0204,4.0274,4.0265,4.0267,4.0282,4.0411,4.0441,4.0371,4.0595,4.0526,4.0543,4.0571,4.0593,4.061,4.0599,4.0306,0,0,0,0,0,3.9884,3.9967,4.0015,4.0137,4.0165,4.019,4.0237,4.0235,4.0293,4.0316,4.0352,4.0409,4.049,4.0543,4.062,4.0769,4.0782,4.0836,4.0853,4.0867,4.0882,4.0962,4.0986,4.0729,4.0729,4.0729,0,0,3.9949,3.9993,4.0045,4.0151,4.0194,4.0279,4.021,4.0304,4.0367,4.033,4.045,4.0479,4.0543,4.0681,4.0743,4.0709,4.0956,4.0882,4.0893,4.09,4.0976,4.1,4.1022,4.0737,4.0735,4.0734,0,0,4.0113,4.0154,4.0259,4.0303,4.0368,4.0383,4.0409,4.0468,4.0485,4.0606,4.058,4.0655,4.0795,4.0841,4.0883,4.1063,4.1038,4.1088,4.1178,4.1256,4.1276,4.1294,4.1357,4.138,4.1102,4.1103,4.1103,0,4.0186,4.0314,4.0316,4.0412,4.0459,4.0429,4.0535,4.0577,4.0664,4.0697,4.0659,4.0832,4.0873,4.102,4.1064,4.11,4.1128,4.108,4.1273,4.1291,4.1308,4.1368,4.1392,4.1108,4.1107,4.1107,4.1106,0,4.04,4.049,4.0567,4.0651,4.0707,4.0807,4.0824,4.088,4.0874,4.0893,4.1016,4.1064,4.1149,4.1185,4.1179,4.1331,4.1308,4.1272,4.1202,4.1338,4.1394,4.1417,4.1116,4.1114,4.1112,4.1111,0,0,4.0609,4.0692,4.072,4.0758,4.0827,4.0896,4.0995,4.1078,4.1126,4.1187,4.127,4.1388,4.1354,4.1402,4.1402,4.147,4.1608,4.1425,4.1426,4.1456,4.1777,4.1803,4.1829,4.1593,4.1597,4.1601,4.1771,0,4.0777,4.095,4.0954,4.1113,4.1195,4.1168,4.1254,4.1306,4.1326,4.1399,4.1422,4.1505,4.1455,4.1483,4.155,4.1577,4.1672,4.1565,4.1669,4.1672,4.1652,4.1859,4.1887,4.2046,4.1793,4.1797,4.18,0,4.0996,4.1063,4.1229,4.1286,4.132,4.1398,4.1473,4.1544,4.1602,4.1612,4.1665,4.1654,4.1755,4.1682,4.1821,4.1748,4.179,4.181,4.1816,4.1825,4.1743,4.1872,4.2097,4.212,4.1835,4.1832,4.1829,0,4.1129,4.1262,4.1378,4.1411,4.148,4.1535,4.1567,4.162,4.1669,4.1736,4.1768,4.1846,4.1888,4.1948,4.1959,4.1905,4.2097,4.2026,4.2108,4.2108,4.2148,4.2146,4.2381,4.2179,4.2178,4.2178,4.2177,0,4.1315,4.1418,4.1439,4.1511,4.1625,4.1629,4.1742,4.1769,4.1816,4.1892,4.1874,4.1946,4.1956,4.203,4.2039,4.2152,4.2172,4.2182,4.2183,4.2183,4.2182,4.221,4.2199,4.2184,4.2183,4.2182,4.218,0,4.1484,4.1502,4.1627,4.1682,4.1698,4.178,4.1827,4.1895,4.1914,4.201,4.2033,4.2063,4.2149,4.2166,4.2269,4.2274,4.2408,4.2399,4.2388,4.2387,4.2467,4.2459,4.2728,4.2763,4.2539,4.2541,4.2543,0,4.1601,4.1679,4.1742,4.1792,4.1825,4.1906,4.1955,4.1962,4.2015,4.2086,4.2146,4.223,4.2298,4.2438,4.2468,4.2546,4.2538,4.2627,4.2549,4.2546,4.2537,4.2532,4.2539,4.2641,4.2644,4.2646,4.2647,0,4.1806,4.1811,4.1883,4.1959,4.2019,4.2079,4.2136,4.2178,4.2192,4.2252,4.234,4.2393,4.2497,4.258,4.2658,4.269,4.2671,4.2672,4.2694,4.2694,4.2684,4.2689,4.2427,4.2665,4.2663,4.2662,4.2661,4.266,4.1952,4.2019,4.2074,4.2155,4.2198,4.2252,4.2318,4.2345,4.2418,4.2503,4.2503,4.2598,4.2654,4.2756,4.2793,4.2868,4.2839,4.2873,4.2881,4.2889,4.2895,4.2674,4.2882,4.2882,4.2881,4.2881,4.288,0,4.2154,4.2188,4.2263,4.2342,4.2406,4.2382,4.2444,4.2499,4.2583,4.2636,4.2703,4.2803,4.2884,4.2921,4.3,4.3053,4.3046,4.3074,4.3069,4.3076,4.2917,4.2889,4.3078,4.3078,4.3078,4.3078,4.3077,4.3077,4.2267,4.238,4.2391,4.2525,4.2558,4.2651,4.2688,4.2737,4.2779,4.2892,4.2959,4.2982,4.3029,4.3111,4.3184,4.3193,4.3222,4.3253,4.3258,4.3108,4.3088,4.3069,4.3042,4.326,4.326,4.3411,4.3412,4.3413]},{"header":{"parameterUnit":"m.s-1","parameterCategory":1,"la1":30.2991,"la2":30.254,"lo1":-89.0895,"lo2":-89.0444,"dy":0.0017,"dx":0.0017,"nx":28,"ny":28,"refTime":"2023-07-19T21:00:00:Z","depth":0,"parameterNumber":3,"parameterNumberName":"V-component_of_WINDS"},"data":[0,0,0,0,0,0,0,0,0,0,0,0,0,0,0,0,0,0,0,0,0,0,0,0,0,0,0,0,0,0,0,0,0,0,0,0,0,0,0,0,0,0,0,0,0,0,0,0,0,0,0,0,0,0,0,0,0,0,0.4365,0.4365,0,0.4339,0.4339,0.4338,0.4307,0.4307,0.4306,0.4306,0.4279,0.4279,0.4278,0,0,0,0,0,0,0,0,0,0,0,0,0,0.4388,0.4388,0.4365,0.4365,0.4365,0.4339,0.4339,0.4338,0.4307,0.4307,0.4306,0.4306,0.4279,0.4279,0.4278,0,0,0,0,0,0,0,0,0,0,0,0,0,0.4371,0.4388,0.4365,0.4346,0.4344,0.4339,0.4339,0.4338,0.4308,0.4307,0.4306,0.4306,0.4279,0.4279,0.4278,0.429,0,0,0.4277,0.4277,0,0,0,0,0,0,0,0,0.4372,0.4371,0.4349,0.4347,0.4345,0.4326,0.4337,0.4322,0.4308,0.4322,0.4306,0.4305,0.4295,0.4293,0.429,0.4289,0.4287,0.4277,0.4277,0.4277,0.4276,0,0,0,0,0,0,0,0.4374,0.4372,0.4355,0.4349,0.4347,0.4339,0.4335,0.4334,0.4313,0.432,0.4318,0.4315,0.4294,0.429,0.4289,0.4287,0.4277,0.4277,0.4276,0.4276,0.4293,0.4293,0,0,0,0,0,0,0.4378,0.4373,0.4356,0.4354,0.4357,0.4339,0.4335,0.4333,0.4313,0.4309,0.4316,0.4314,0.4291,0.429,0.4288,0.43,0.4277,0.4276,0.4276,0.4292,0.4293,0.4293,0,0,0,0,0,0,0.4378,0.4376,0.4357,0.4363,0.436,0.4339,0.4336,0.4333,0.4329,0.4309,0.4305,0.4316,0.4291,0.4289,0.4289,0.4298,0.4276,0.4276,0.4291,0.4292,0.4293,0.4323,0,0,0,0,0,0,0.4379,0.4377,0.4381,0.4363,0.4359,0.4359,0.4337,0.4333,0.4328,0.4326,0.4309,0.4305,0.429,0.429,0.4289,0.4297,0.4275,0.429,0.4292,0.4293,0.4322,0.4325,0.4329,0,0,0,0,0,0.438,0.4391,0.4382,0.438,0.4365,0.436,0.4358,0.434,0.4329,0.4334,0.432,0.4306,0.4297,0.4291,0.4289,0.4297,0.429,0.4291,0.4293,0.432,0.4325,0.4329,0,0,0,0,0,0,0.4412,0.4389,0.4378,0.4384,0.4374,0.4354,0.4359,0.4346,0.4339,0.4337,0.4315,0.4311,0.4315,0.4306,0.4299,0.4307,0.4291,0.4292,0.4313,0.4317,0.432,0.4323,0.4275,0,0,0,0,0,0.4419,0.4417,0.4397,0.4404,0.44,0.438,0.4377,0.4365,0.4354,0.4349,0.4337,0.4326,0.4321,0.4318,0.4313,0.432,0.4315,0.4325,0.4328,0.4331,0.4333,0.4335,0.4339,0.4299,0.4299,0.4298,0,0,0.4435,0.4422,0.4422,0.441,0.4401,0.4399,0.4377,0.4376,0.4374,0.4349,0.4349,0.4339,0.4326,0.433,0.4331,0.4323,0.4342,0.4333,0.4336,0.4335,0.4337,0.4341,0.4344,0.43,0.4299,0.4299,0,0,0.4463,0.4453,0.4457,0.4448,0.4435,0.4422,0.4423,0.4405,0.4397,0.4397,0.4378,0.4375,0.4367,0.4358,0.4353,0.4375,0.4361,0.4374,0.4393,0.4395,0.4398,0.4401,0.4409,0.4412,0.4375,0.4375,0.4376,0,0.4484,0.4481,0.4461,0.4461,0.4456,0.4433,0.4437,0.4429,0.4414,0.4411,0.4402,0.439,0.438,0.4381,0.4386,0.4383,0.4383,0.4376,0.4399,0.4402,0.4404,0.4411,0.4414,0.4377,0.4377,0.4377,0.4377,0,0.4507,0.4505,0.451,0.4496,0.4492,0.4494,0.4474,0.4472,0.4459,0.4446,0.4446,0.4432,0.4423,0.4422,0.441,0.4421,0.4416,0.4403,0.4388,0.441,0.4416,0.4419,0.4379,0.4379,0.4378,0.4378,0,0,0.4556,0.453,0.4532,0.4525,0.4508,0.4505,0.4506,0.4496,0.4494,0.4485,0.4484,0.4477,0.4465,0.4459,0.4445,0.4447,0.4465,0.4434,0.4433,0.444,0.4476,0.4486,0.4489,0.4455,0.4456,0.4456,0.4477,0,0.458,0.458,0.4562,0.4567,0.4564,0.4541,0.4541,0.453,0.4518,0.4514,0.45,0.4495,0.448,0.4476,0.4477,0.4463,0.4472,0.4461,0.4454,0.4454,0.4459,0.4493,0.4503,0.4524,0.4479,0.448,0.448,0,0.4609,0.4601,0.4605,0.4587,0.4585,0.4586,0.4575,0.4571,0.4558,0.4549,0.4541,0.4525,0.4523,0.4508,0.4505,0.4498,0.4494,0.4486,0.4486,0.4486,0.4469,0.4493,0.453,0.4533,0.4484,0.4483,0.4483,0,0.4644,0.4634,0.4635,0.4629,0.4608,0.4608,0.4599,0.4585,0.458,0.4571,0.4567,0.4558,0.4553,0.4545,0.4527,0.4517,0.4526,0.4509,0.4518,0.4518,0.4521,0.4522,0.4559,0.4518,0.4518,0.4518,0.4518,0,0.4674,0.4677,0.465,0.465,0.4653,0.4632,0.4635,0.4624,0.4611,0.4609,0.4588,0.4586,0.4562,0.4557,0.4542,0.4541,0.4539,0.4532,0.4528,0.4534,0.4535,0.4531,0.4529,0.4519,0.4519,0.4519,0.4519,0,0.4713,0.4695,0.4694,0.4674,0.4668,0.4671,0.4653,0.4653,0.4639,0.4636,0.4634,0.4612,0.4605,0.4586,0.4574,0.4564,0.4567,0.456,0.4572,0.457,0.458,0.4579,0.4616,0.462,0.4577,0.4578,0.4578,0,0.4734,0.4736,0.4715,0.4712,0.4703,0.4699,0.4694,0.4672,0.4667,0.4651,0.4653,0.4644,0.4636,0.4625,0.4608,0.4599,0.4591,0.4604,0.4589,0.4595,0.4591,0.4591,0.4591,0.4608,0.4609,0.4609,0.4609,0,0.4772,0.4762,0.4756,0.4746,0.474,0.4731,0.4721,0.4719,0.4695,0.4691,0.4683,0.4677,0.4664,0.4655,0.4643,0.4633,0.4617,0.4614,0.4616,0.4622,0.4629,0.4625,0.4581,0.4614,0.4613,0.4613,0.4613,0.4613,0.4802,0.4803,0.4788,0.4781,0.4771,0.4761,0.476,0.4745,0.4739,0.4727,0.4714,0.4708,0.4693,0.4674,0.4665,0.4659,0.4651,0.4654,0.4654,0.4655,0.4658,0.4629,0.4657,0.4657,0.4657,0.4657,0.4656,0,0.4839,0.4828,0.4822,0.4808,0.4802,0.4787,0.4775,0.4771,0.4766,0.4753,0.4746,0.4736,0.4727,0.4709,0.4698,0.4697,0.469,0.4695,0.4695,0.4693,0.4666,0.4665,0.4701,0.4701,0.4701,0.4701,0.4701,0.4701,0.4857,0.4857,0.4846,0.484,0.4829,0.4823,0.4817,0.4808,0.4797,0.4788,0.4781,0.4769,0.4753,0.4741,0.4732,0.4727,0.4724,0.4731,0.4724,0.4699,0.4695,0.4691,0.469,0.4731,0.4731,0.4751,0.4751,0.4752]}]]